Regional Weather Roundup
Issued by NWS

Home | Current Version | Previous Version | Graphics & Text | Print | Product List | Glossary On
Versions: 1 2 3 4 5 6 7 8 9 10 11 12 13 14 15 16 17 18 19 20 21 22 23 24 25 26 27 28 29 30 31 32 33 34 35 36 37 38 39 40 41 42 43 44 45 46 47 48 49 50
000
ASUS44 KMEG 180300
RWRTN
TENNESSEE HOURLY STATE WEATHER ROUNDUP
NATIONAL WEATHER SERVICE MEMPHIS TN
1000 PM CDT THU APR 17 2014

TNZ002-004-019-021-049-052-054-088>092-180400-
WEST TENNESSEE

CITY           SKY/WX    TMP DP  RH WIND       PRES   REMARKS
MEMPHIS INTL   CLOUDY    63  42  46 SE6       30.23S
NWS MEMPHIS      N/A     57 N/A N/A MISG        N/A
JACKSON        CLOUDY    53  41  63 CALM      30.25R
DYERSBURG      CLOUDY    57  39  51 E6        30.25S
UNION CITY     CLEAR     54  45  71 CALM      30.24S
LEXINGTON      CLEAR     55  39  54 CALM      30.25R
$$

TNZ008-025-027-028-033-062-065-066-180400-
NORTH MIDDLE TENNESSEE

CITY           SKY/WX    TMP DP  RH WIND       PRES   REMARKS
NASHVILLE      CLOUDY    57  40  52 S3        30.27S
CLARKSVILLE    MOCLDY    57  34  41 SE5       30.26S
COOKEVILLE     CLEAR     48  39  71 CALM      30.28F
CROSSVILLE     MOCLDY    52  35  52 CALM      30.32S
$$

TNZ061-075-076-078-094-096-097-180400-
SOUTH MIDDLE TENNESSEE

CITY           SKY/WX    TMP DP  RH WIND       PRES   REMARKS
TULLAHOMA      CLEAR     57  37  47 SE5       30.30R
WINCHESTER     PTCLDY    57  43  58 SE8       30.29S
MCMINNVILLE    CLEAR     57  39  51 CALM      30.29S
COLUMBIA       CLEAR     54  48  82 CALM      30.26R
$$

TNZ017-018-042-046-047-180400-
NORTHEAST TENNESSEE

CITY           SKY/WX    TMP DP  RH WIND       PRES   REMARKS
TRI CITIES     PTCLDY    54  20  26 SE7       30.37S
ELIZABETHTON   CLEAR     52  21  30 CALM      30.39F
$$

TNZ012-013-036-069-073-074-180400-
CENTRAL EAST TENNESSEE

CITY           SKY/WX    TMP DP  RH WIND       PRES   REMARKS
KNOXVILLE      CLOUDY    56  37  49 CALM      30.31R
OAK RIDGE      MOCLDY    52  39  61 CALM      30.32S
$$

TNZ083-085-099-180400-
SOUTHEAST TENNESSEE

CITY           SKY/WX    TMP DP  RH WIND       PRES   REMARKS
CHATTANOOGA    CLOUDY    60  39  45 CALM      30.32R
$$

SKY/WX REPORTED AS FAIR MEANS FEW OR NO CLOUDS BELOW
12 THOUSAND FEET.




USA.gov is the U.S. government's official web portal to all federal, state and local government web resources and services.